SES-15 (42709 NORAD) Tracking and Keplerian Element Data

This shows tracking and keplerian element data for the satellite.

Feedback or suggestion? Click here.




ElementValue
Catalog42709
NameSES-15
Epoch Orbit2050
Epoch Day269.16245097
Epoch Year2022
RAAN198.9222
Inclination0.0078
Eccentricity0.0001008
Argument of Perigee334.8599
Mean Anonmoly120.4941
Mean Motion1.00270868
Decay Rate6.2E-07
L11 42709U 17026A 22269.16245097 .00000062 00000+0 00000+0 0 9999
L22 42709 0.0078 198.9222 0001008 334.8599 120.4941 1.00270868 20502

Live tracking and technical data element details for SES-15 (NORAD 42709). SES-15 can be tracked NOW for your location showing map with azimuth and elevation plus other details from your city location.

Track the satellite on the map from your city or location and see movement details for azimuth, elevation, latitude, longitude, range, height, and movement on the map or in text.







IsCatalogInMostPopularTable: catalog: 42709, numindb: 632
Update: records affected: 1



GetName: 42709 SES-15

Hit Count: updated at: Wed, 28 Sep 2022 21:58:17 GMT